Language: 


Des rapports , des résumés tant et plus, au choix de chacun....


Données statistiques de la station
Quotidien Rapport Octobre 25, 2017 Unités:  Métrique    Anglais   les deux
« Précédent Jour
Suivant Jour »
Quotidien Hebdomadaire Mensuel Annuel Actuel
  Haut: Bas: Moyen:
Température: 17.5 °C 0.0 °C 15.9 °C
Pt de rosée: 16.0 °C 14.0 °C 15.2 °C
Humidité: 98 % 0 % 95 %
Vitesse du vent: 20.1 km/h 0.0 km/h 8.5 km/h
Rafales: 24.5 km/h - -
Vent:- - SW
Pression: 1024.9 hPa 0.0 hPa -
Précipitation: 0.3 mm    
Historical Graphs
 
 
Données statistiques pour Octobre 25, 2017
Heure Température Point de rosée Pression Vent Vitesse du vent Refales Humidité Pluie (taux horaire)
00:04 16.5 °C 16.0 °C 1020.9 hPa Calm   8.7 km/h 97 % 0.0 mm
00:09 16.5 °C 16.0 °C 1020.9 hPa SW 4.7 km/h 10.1 km/h 97 % 0.0 mm
00:14 16.5 °C 16.0 °C 1020.9 hPa SW 9.0 km/h 10.1 km/h 97 % 0.0 mm
00:15 16.5 °C 16.0 °C 1020.9 hPa SW 5.0 km/h 10.1 km/h 97 % 0.0 mm
00:20 16.5 °C 16.0 °C 1020.9 hPa SW 9.0 km/h 11.9 km/h 97 % 0.0 mm
00:25 16.5 °C 16.0 °C 1020.9 hPa South 6.4 km/h 14.0 km/h 97 % 0.0 mm
00:26 16.5 °C 16.0 °C 1020.9 hPa SW 9.3 km/h 14.0 km/h 97 % 0.0 mm
00:31 16.6 °C 16.0 °C 1019.9 hPa SSW 6.4 km/h 14.0 km/h 97 % 0.0 mm
00:36 16.6 °C 16.0 °C 1019.9 hPa SW 7.9 km/h 12.6 km/h 97 % 0.0 mm
00:41 16.6 °C 16.0 °C 1019.9 hPa SW 7.9 km/h 10.1 km/h 97 % 0.0 mm
00:46 16.6 °C 16.0 °C 1019.9 hPa SW 9.7 km/h 10.1 km/h 97 % 0.0 mm
00:51 16.6 °C 16.0 °C 1019.9 hPa Calm   10.1 km/h 97 % 0.0 mm
00:56 16.6 °C 16.0 °C 1019.9 hPa South 9.3 km/h 12.6 km/h 97 % 0.0 mm
01:01 16.6 °C 16.0 °C 1018.8 hPa SSW 10.8 km/h 12.6 km/h 97 % 0.0 mm
01:06 16.6 °C 16.0 °C 1018.8 hPa South 9.3 km/h 12.6 km/h 97 % 0.0 mm
01:11 16.7 °C 16.0 °C 1018.8 hPa SSW 10.5 km/h 12.6 km/h 96 % 0.0 mm
01:16 16.6 °C 16.0 °C 1018.8 hPa South 9.0 km/h 10.5 km/h 96 % 0.0 mm
01:21 16.6 °C 16.0 °C 1018.8 hPa SSW 10.1 km/h 13.0 km/h 96 % 0.0 mm
01:26 16.6 °C 16.0 °C 1018.8 hPa SSW 6.9 km/h 13.7 km/h 96 % 0.0 mm
01:31 16.5 °C 16.0 °C 1018.8 hPa SW 12.6 km/h 13.7 km/h 96 % 0.0 mm
01:36 16.5 °C 16.0 °C 1018.8 hPa South 11.6 km/h 13.7 km/h 96 % 0.0 mm
01:41 16.5 °C 16.0 °C 1018.8 hPa SSW 15.8 km/h 17.2 km/h 96 % 0.0 mm
01:46 16.5 °C 16.0 °C 1018.8 hPa SW 16.3 km/h 17.2 km/h 96 % 0.0 mm
01:52 16.5 °C 16.0 °C 1018.8 hPa SSW 10.5 km/h 16.6 km/h 96 % 0.0 mm
01:57 16.5 °C 16.0 °C 1018.8 hPa SW 11.1 km/h 14.3 km/h 96 % 0.0 mm
02:02 16.4 °C 16.0 °C 1018.8 hPa WSW 13.0 km/h 14.0 km/h 96 % 0.0 mm
02:07 16.3 °C 16.0 °C 1018.8 hPa SW 7.9 km/h 14.0 km/h 96 % 0.0 mm
02:12 16.3 °C 16.0 °C 1018.8 hPa SW 9.0 km/h 14.0 km/h 96 % 0.0 mm
02:17 16.2 °C 16.0 °C 1018.2 hPa SSW 11.9 km/h 14.0 km/h 96 % 0.0 mm
02:22 16.2 °C 16.0 °C 1018.2 hPa SW 9.3 km/h 14.0 km/h 96 % 0.0 mm
02:27 16.2 °C 16.0 °C 1018.2 hPa SW 10.1 km/h 14.0 km/h 96 % 0.0 mm
02:32 16.1 °C 16.0 °C 1018.2 hPa SW 7.9 km/h 14.0 km/h 96 % 0.0 mm
02:37 16.0 °C 16.0 °C 1018.2 hPa SW 8.7 km/h 12.6 km/h 96 % 0.0 mm
02:42 15.9 °C 16.0 °C 1018.2 hPa WSW 9.3 km/h 12.6 km/h 96 % 0.0 mm
02:47 15.9 °C 16.0 °C 1018.2 hPa SW 9.0 km/h 11.9 km/h 96 % 0.0 mm
02:52 15.9 °C 16.0 °C 1018.2 hPa SW 12.6 km/h 14.0 km/h 97 % 0.0 mm
02:57 15.8 °C 15.0 °C 1018.2 hPa SW 13.0 km/h 14.0 km/h 97 % 0.0 mm
03:02 0.0 °C 15.0 °C 1018.8 hPa SW 11.6 km/h 11.6 km/h 0 % 0.0 mm
03:07 15.8 °C 15.0 °C 1018.8 hPa SW 12.2 km/h 15.8 km/h 96 % 0.0 mm
03:12 15.9 °C 16.0 °C 1018.8 hPa SSW 9.7 km/h 19.5 km/h 96 % 0.0 mm
03:17 15.9 °C 16.0 °C 1018.8 hPa SSW 9.3 km/h 19.5 km/h 96 % 0.0 mm
03:22 15.9 °C 16.0 °C 1018.8 hPa SW 6.4 km/h 14.0 km/h 96 % 0.0 mm
03:27 15.9 °C 16.0 °C 1018.8 hPa SSW 10.5 km/h 14.0 km/h 96 % 0.0 mm
03:32 15.8 °C 15.0 °C 1018.8 hPa SW 10.5 km/h 14.0 km/h 96 % 0.0 mm
03:37 15.8 °C 15.0 °C 1018.8 hPa SW 10.5 km/h 15.8 km/h 96 % 0.0 mm
03:42 15.8 °C 15.0 °C 1018.8 hPa SSW 10.1 km/h 15.8 km/h 96 % 0.0 mm
03:47 15.7 °C 15.0 °C 1018.2 hPa SW 13.0 km/h 18.3 km/h 96 % 0.0 mm
03:52 15.7 °C 15.0 °C 1018.2 hPa SSW 13.0 km/h 18.3 km/h 96 % 0.0 mm
03:57 15.8 °C 15.0 °C 1018.2 hPa SW 11.9 km/h 15.1 km/h 96 % 0.0 mm
04:02 15.7 °C 15.0 °C 1018.8 hPa SSW 11.9 km/h 15.1 km/h 96 % 0.0 mm
04:07 15.7 °C 15.0 °C 1018.8 hPa SSW 7.9 km/h 15.8 km/h 96 % 0.0 mm
04:12 15.7 °C 15.0 °C 1018.8 hPa SSW 12.6 km/h 17.2 km/h 96 % 0.0 mm
04:17 15.7 °C 15.0 °C 1018.8 hPa SW 12.2 km/h 17.2 km/h 96 % 0.0 mm
04:22 15.7 °C 15.0 °C 1018.8 hPa SW 10.8 km/h 17.7 km/h 96 % 0.0 mm
04:27 15.7 °C 15.0 °C 1018.8 hPa SW 12.6 km/h 17.7 km/h 95 % 0.0 mm
04:32 15.7 °C 15.0 °C 1018.8 hPa SW 16.3 km/h 16.3 km/h 95 % 0.0 mm
04:37 15.6 °C 15.0 °C 1018.8 hPa SW 12.2 km/h 16.9 km/h 95 % 0.0 mm
04:42 15.6 °C 15.0 °C 1018.8 hPa WSW 15.4 km/h 16.9 km/h 95 % 0.0 mm
04:47 15.6 °C 15.0 °C 1018.8 hPa WSW 12.6 km/h 16.9 km/h 95 % 0.0 mm
04:53 15.5 °C 15.0 °C 1018.8 hPa WSW 12.6 km/h 14.3 km/h 95 % 0.0 mm
04:58 15.5 °C 15.0 °C 1018.8 hPa SW 16.9 km/h 16.9 km/h 95 % 0.0 mm
05:03 15.5 °C 15.0 °C 1018.8 hPa SW 9.7 km/h 16.9 km/h 95 % 0.0 mm
05:08 15.5 °C 15.0 °C 1018.8 hPa SW 14.8 km/h 16.9 km/h 95 % 0.0 mm
05:13 15.4 °C 15.0 °C 1018.8 hPa SSW 11.6 km/h 16.9 km/h 95 % 0.0 mm
05:18 15.4 °C 15.0 °C 1018.8 hPa SSW 7.9 km/h 14.0 km/h 95 % 0.0 mm
05:23 15.5 °C 15.0 °C 1018.8 hPa SW 10.5 km/h 16.6 km/h 95 % 0.0 mm
05:28 15.4 °C 15.0 °C 1018.8 hPa SSW 9.0 km/h 16.6 km/h 95 % 0.0 mm
05:33 15.5 °C 15.0 °C 1018.8 hPa SW 8.7 km/h 13.7 km/h 95 % 0.0 mm
05:38 15.5 °C 15.0 °C 1018.8 hPa South 9.0 km/h 13.7 km/h 95 % 0.0 mm
05:43 15.5 °C 15.0 °C 1018.8 hPa WSW 8.7 km/h 16.6 km/h 95 % 0.0 mm
05:48 15.6 °C 15.0 °C 1018.8 hPa SW 11.9 km/h 16.6 km/h 95 % 0.0 mm
05:53 15.5 °C 15.0 °C 1018.8 hPa SW 6.9 km/h 13.7 km/h 95 % 0.0 mm
05:58 15.5 °C 15.0 °C 1018.8 hPa SSW 11.6 km/h 12.6 km/h 95 % 0.0 mm
06:03 15.5 °C 15.0 °C 1018.8 hPa SW 13.0 km/h 13.7 km/h 95 % 0.0 mm
06:08 15.5 °C 15.0 °C 1018.8 hPa SW 11.6 km/h 13.7 km/h 95 % 0.0 mm
06:13 15.5 °C 15.0 °C 1018.8 hPa SW 11.9 km/h 13.0 km/h 95 % 0.0 mm
06:18 15.5 °C 15.0 °C 1018.8 hPa SW 11.9 km/h 12.6 km/h 95 % 0.0 mm
06:23 15.5 °C 15.0 °C 1018.8 hPa SSW 9.3 km/h 16.9 km/h 95 % 0.0 mm
06:28 15.5 °C 15.0 °C 1018.8 hPa WSW 9.0 km/h 16.9 km/h 95 % 0.0 mm
06:33 15.5 °C 15.0 °C 1019.9 hPa SW 10.5 km/h 13.7 km/h 95 % 0.0 mm
06:38 15.5 °C 15.0 °C 1019.9 hPa SSW 9.0 km/h 13.7 km/h 95 % 0.0 mm
06:43 15.4 °C 15.0 °C 1019.9 hPa SW 11.9 km/h 12.6 km/h 95 % 0.0 mm
06:48 15.4 °C 15.0 °C 1018.8 hPa SW 10.5 km/h 11.9 km/h 95 % 0.0 mm
06:53 15.4 °C 15.0 °C 1018.8 hPa SSW 8.7 km/h 12.2 km/h 95 % 0.0 mm
06:58 15.4 °C 15.0 °C 1018.8 hPa SW 9.0 km/h 12.6 km/h 95 % 0.0 mm
07:03 15.2 °C 15.0 °C 1018.8 hPa WSW 11.6 km/h 12.6 km/h 95 % 0.0 mm
07:08 15.2 °C 15.0 °C 1018.8 hPa SSW 9.3 km/h 12.6 km/h 95 % 0.0 mm
07:13 15.2 °C 15.0 °C 1018.8 hPa SW 11.6 km/h 13.0 km/h 95 % 0.0 mm
07:18 15.1 °C 14.0 °C 1018.8 hPa WSW 12.6 km/h 14.0 km/h 95 % 0.0 mm
07:23 15.1 °C 14.0 °C 1018.8 hPa SW 11.9 km/h 14.0 km/h 95 % 0.0 mm
07:28 15.1 °C 14.0 °C 1018.8 hPa SW 9.0 km/h 13.0 km/h 95 % 0.0 mm
07:33 15.0 °C 14.0 °C 1018.8 hPa SW 14.0 km/h 14.0 km/h 95 % 0.0 mm
07:38 14.9 °C 15.0 °C 1018.8 hPa WSW 8.7 km/h 14.0 km/h 96 % 0.0 mm
07:44 14.9 °C 15.0 °C 1018.8 hPa SW 10.5 km/h 19.5 km/h 96 % 0.0 mm
07:49 14.9 °C 15.0 °C 1018.8 hPa SSW 10.5 km/h 13.7 km/h 96 % 0.0 mm
07:54 14.8 °C 14.0 °C 1018.8 hPa SSW 9.0 km/h 14.0 km/h 96 % 0.0 mm
07:59 14.7 °C 14.0 °C 1018.8 hPa SSW 7.9 km/h 14.0 km/h 96 % 0.0 mm
08:04 14.6 °C 14.0 °C 1018.8 hPa WSW 8.7 km/h 13.7 km/h 96 % 0.0 mm
08:09 14.6 °C 14.0 °C 1018.8 hPa WSW 9.7 km/h 13.7 km/h 96 % 0.0 mm
08:14 14.6 °C 14.0 °C 1018.8 hPa SW 12.2 km/h 12.6 km/h 96 % 0.0 mm
08:19 14.6 °C 14.0 °C 0.0 hPa WSW 10.1 km/h 11.3 km/h 97 % 0.0 mm
08:24 14.5 °C 14.0 °C 1018.8 hPa SW 10.8 km/h 13.7 km/h 96 % 0.0 mm
08:29 14.5 °C 14.0 °C 1018.8 hPa SW 10.5 km/h 17.7 km/h 97 % 0.0 mm
08:34 14.5 °C 14.0 °C 1018.8 hPa SSW 15.8 km/h 15.8 km/h 97 % 0.0 mm
08:39 14.6 °C 14.0 °C 1018.8 hPa SW 11.1 km/h 15.8 km/h 97 % 0.0 mm
08:44 14.5 °C 14.0 °C 1018.8 hPa SSW 14.0 km/h 16.3 km/h 97 % 0.0 mm
08:49 14.5 °C 14.0 °C 1018.2 hPa SW 9.0 km/h 16.3 km/h 97 % 0.0 mm
08:54 14.5 °C 14.0 °C 1018.2 hPa SW 9.3 km/h 15.1 km/h 97 % 0.0 mm
08:59 14.4 °C 14.0 °C 1018.2 hPa SW 6.9 km/h 11.9 km/h 97 % 0.0 mm
09:04 14.4 °C 14.0 °C 1018.8 hPa SW 5.8 km/h 8.5 km/h 97 % 0.0 mm
09:09 14.5 °C 14.0 °C 1018.8 hPa WSW 10.1 km/h 12.2 km/h 97 % 0.0 mm
09:14 14.5 °C 14.0 °C 1018.8 hPa South 4.3 km/h 12.2 km/h 97 % 0.3 mm
09:19 14.5 °C 14.0 °C 1019.9 hPa SW 7.9 km/h 9.0 km/h 97 % 0.3 mm
09:24 14.5 °C 14.0 °C 1019.9 hPa SW 8.7 km/h 9.0 km/h 97 % 0.3 mm
09:29 14.5 °C 14.0 °C 1019.9 hPa WSW 5.8 km/h 10.1 km/h 97 % 0.3 mm
09:34 14.5 °C 14.0 °C 1019.9 hPa SSW 10.1 km/h 10.5 km/h 97 % 0.3 mm
09:39 14.5 °C 14.0 °C 1019.9 hPa SSW 11.6 km/h 13.7 km/h 97 % 0.3 mm
09:44 14.6 °C 14.0 °C 1019.9 hPa SSW 8.7 km/h 17.7 km/h 97 % 0.3 mm
09:49 14.7 °C 14.0 °C 1019.9 hPa SW 7.9 km/h 17.7 km/h 97 % 0.3 mm
09:54 14.8 °C 14.0 °C 1019.9 hPa WSW 8.7 km/h 12.6 km/h 97 % 0.3 mm
09:59 14.8 °C 14.0 °C 1019.9 hPa WSW 6.1 km/h 11.9 km/h 97 % 0.3 mm
10:04 14.8 °C 14.0 °C 1020.9 hPa SW 9.3 km/h 10.5 km/h 97 % 0.3 mm
10:09 15.1 °C 15.0 °C 1020.9 hPa SSW 9.3 km/h 11.9 km/h 97 % 0.3 mm
10:15 15.3 °C 15.0 °C 1020.9 hPa SW 8.7 km/h 13.0 km/h 96 % 0.0 mm
10:20 15.5 °C 15.0 °C 1020.9 hPa WSW 9.7 km/h 15.4 km/h 96 % 0.0 mm
10:25 15.7 °C 15.0 °C 1020.9 hPa SSW 9.0 km/h 15.4 km/h 96 % 0.0 mm
10:30 15.8 °C 15.0 °C 1020.9 hPa SW 8.7 km/h 13.7 km/h 96 % 0.0 mm
10:35 15.8 °C 15.0 °C 1020.9 hPa WSW 11.9 km/h 13.0 km/h 95 % 0.0 mm
10:40 15.9 °C 15.0 °C 1020.9 hPa WSW 9.7 km/h 16.9 km/h 95 % 0.0 mm
10:45 16.1 °C 15.0 °C 1020.9 hPa WSW 10.5 km/h 16.9 km/h 94 % 0.0 mm
10:50 16.2 °C 15.0 °C 1020.9 hPa WSW 10.5 km/h 19.8 km/h 93 % 0.0 mm
10:55 16.5 °C 16.0 °C 1020.9 hPa WSW 12.2 km/h 21.2 km/h 93 % 0.0 mm
11:00 16.7 °C 16.0 °C 1020.9 hPa WSW 20.1 km/h 21.2 km/h 93 % 0.0 mm
11:05 16.7 °C 15.0 °C 1020.9 hPa WSW 15.4 km/h 20.6 km/h 91 % 0.0 mm
11:10 16.8 °C 15.0 °C 1020.9 hPa WSW 16.6 km/h 20.6 km/h 90 % 0.0 mm
11:15 16.9 °C 15.0 °C 1020.9 hPa WSW 15.4 km/h 21.6 km/h 90 % 0.0 mm
11:20 16.9 °C 15.0 °C 1020.9 hPa WSW 19.5 km/h 24.5 km/h 88 % 0.0 mm
11:25 16.8 °C 15.0 °C 1020.9 hPa WSW 15.4 km/h 24.5 km/h 87 % 0.0 mm
11:30 16.9 °C 15.0 °C 1019.9 hPa WSW 11.9 km/h 24.5 km/h 87 % 0.0 mm
11:35 17.2 °C 15.0 °C 1019.9 hPa WSW 13.7 km/h 23.3 km/h 87 % 0.0 mm
11:40 17.3 °C 15.0 °C 1019.9 hPa West 13.0 km/h 21.2 km/h 87 % 0.0 mm
11:45 17.5 °C 16.0 °C 1019.9 hPa West 15.8 km/h 21.2 km/h 87 % 0.0 mm
11:50 17.3 °C 15.0 °C 1019.9 hPa West 14.3 km/h 17.7 km/h 86 % 0.0 mm
12:00 17.2 °C 15.0 °C 1020.9 hPa West 17.7 km/h 19.8 km/h 85 % 0.0 mm
12:05 17.0 °C 15.0 °C 1020.9 hPa WSW 15.8 km/h 19.8 km/h 86 % 0.0 mm
12:10 16.8 °C 14.0 °C 1020.9 hPa WSW 12.6 km/h 20.6 km/h 86 % 0.0 mm
12:16 16.6 °C 14.0 °C 1020.9 hPa West 10.5 km/h 20.6 km/h 86 % 0.0 mm
12:21 16.6 °C 15.0 °C 1020.9 hPa WSW 14.3 km/h 18.0 km/h 87 % 0.0 mm
12:26 16.6 °C 15.0 °C 1020.9 hPa WSW 10.5 km/h 16.9 km/h 88 % 0.0 mm
12:31 16.7 °C 15.0 °C 1020.9 hPa WSW 11.9 km/h 16.9 km/h 89 % 0.0 mm
12:36 16.7 °C 15.0 °C 1020.9 hPa WSW 12.2 km/h 16.9 km/h 89 % 0.0 mm
12:41 16.7 °C 15.0 °C 1020.9 hPa WSW 13.0 km/h 16.9 km/h 89 % 0.0 mm
12:46 16.7 °C 15.0 °C 1020.9 hPa WSW 8.7 km/h 16.9 km/h 89 % 0.0 mm
12:51 16.8 °C 15.0 °C 1020.9 hPa West 11.1 km/h 16.6 km/h 89 % 0.0 mm
12:56 16.8 °C 15.0 °C 1020.9 hPa West 9.7 km/h 16.6 km/h 89 % 0.0 mm
13:01 16.8 °C 15.0 °C 1021.9 hPa WSW 9.7 km/h 14.0 km/h 90 % 0.0 mm
13:06 17.0 °C 15.0 °C 1021.9 hPa WSW 10.5 km/h 12.6 km/h 90 % 0.0 mm
13:11 17.0 °C 15.0 °C 1021.9 hPa WSW 12.2 km/h 14.0 km/h 89 % 0.0 mm
13:16 17.0 °C 15.0 °C 1020.9 hPa WSW 14.8 km/h 16.3 km/h 89 % 0.0 mm
13:21 16.9 °C 15.0 °C 1020.9 hPa WSW 10.5 km/h 17.7 km/h 89 % 0.0 mm
13:26 16.9 °C 15.0 °C 1020.9 hPa WSW 6.9 km/h 17.7 km/h 89 % 0.0 mm
13:31 17.0 °C 15.0 °C 1020.9 hPa WSW 9.7 km/h 12.6 km/h 90 % 0.0 mm
13:36 17.0 °C 15.0 °C 1020.9 hPa SW 12.2 km/h 12.2 km/h 90 % 0.0 mm
13:41 17.1 °C 15.0 °C 1020.9 hPa WSW 9.7 km/h 13.7 km/h 90 % 0.0 mm
13:46 17.1 °C 15.0 °C 1021.9 hPa West 9.7 km/h 13.7 km/h 90 % 0.0 mm
13:51 17.2 °C 16.0 °C 1021.9 hPa WSW 9.0 km/h 13.7 km/h 90 % 0.0 mm
13:56 17.2 °C 16.0 °C 1021.9 hPa WSW 11.6 km/h 13.7 km/h 90 % 0.0 mm
14:01 17.2 °C 16.0 °C 1021.9 hPa WSW 11.9 km/h 12.2 km/h 90 % 0.0 mm
14:06 17.2 °C 16.0 °C 1021.9 hPa West 12.6 km/h 15.8 km/h 90 % 0.0 mm
14:11 17.2 °C 16.0 °C 1021.9 hPa WSW 12.6 km/h 15.8 km/h 89 % 0.0 mm
14:16 17.2 °C 16.0 °C 1021.9 hPa West 10.1 km/h 16.6 km/h 89 % 0.0 mm
14:21 17.2 °C 16.0 °C 1021.9 hPa Calm   17.7 km/h 89 % 0.0 mm
14:26 17.2 °C 16.0 °C 1021.9 hPa WSW 16.9 km/h 17.7 km/h 89 % 0.0 mm
14:32 17.3 °C 16.0 °C 1021.9 hPa West 14.8 km/h 20.6 km/h 89 % 0.0 mm
14:37 17.3 °C 16.0 °C 1021.9 hPa West 16.3 km/h 20.6 km/h 89 % 0.0 mm
14:42 17.3 °C 16.0 °C 1021.9 hPa West 9.7 km/h 16.9 km/h 89 % 0.0 mm
14:47 17.3 °C 16.0 °C 1021.9 hPa WSW 13.7 km/h 16.9 km/h 89 % 0.0 mm
14:52 17.3 °C 16.0 °C 1021.9 hPa WSW 8.7 km/h 16.6 km/h 89 % 0.0 mm
14:57 17.3 °C 16.0 °C 1021.9 hPa WSW 12.2 km/h 13.7 km/h 90 % 0.0 mm
15:02 17.3 °C 16.0 °C 1021.9 hPa WSW 13.0 km/h 17.2 km/h 90 % 0.0 mm
15:07 17.3 °C 16.0 °C 1021.9 hPa West 9.0 km/h 17.2 km/h 90 % 0.0 mm
15:12 17.4 °C 16.0 °C 1021.9 hPa West 9.3 km/h 14.8 km/h 90 % 0.0 mm
15:17 17.3 °C 16.0 °C 1021.9 hPa West 10.1 km/h 15.8 km/h 90 % 0.0 mm
15:22 17.4 °C 16.0 °C 1021.9 hPa West 11.9 km/h 15.8 km/h 90 % 0.0 mm
15:27 17.3 °C 16.0 °C 1021.9 hPa West 10.5 km/h 14.3 km/h 89 % 0.0 mm
15:32 17.3 °C 16.0 °C 1021.9 hPa WSW 12.2 km/h 14.0 km/h 90 % 0.0 mm
15:37 17.2 °C 16.0 °C 1021.9 hPa West 4.7 km/h 14.0 km/h 90 % 0.0 mm
15:42 17.0 °C 16.0 °C 1021.9 hPa WSW 17.7 km/h 17.7 km/h 91 % 0.0 mm
15:47 16.9 °C 16.0 °C 1021.9 hPa WSW 14.0 km/h 19.1 km/h 91 % 0.0 mm
15:52 16.8 °C 15.0 °C 1021.9 hPa WSW 12.2 km/h 19.1 km/h 92 % 0.0 mm
15:58 16.8 °C 15.0 °C 1021.9 hPa West 10.5 km/h 17.2 km/h 92 % 0.0 mm
16:03 16.8 °C 15.0 °C 1021.9 hPa WSW 10.5 km/h 17.2 km/h 92 % 0.0 mm
16:08 16.8 °C 16.0 °C 1021.9 hPa WSW 12.2 km/h 19.1 km/h 93 % 0.0 mm
16:13 16.9 °C 16.0 °C 1021.9 hPa WSW 9.3 km/h 19.1 km/h 93 % 0.0 mm
16:18 17.0 °C 16.0 °C 1021.9 hPa SW 9.7 km/h 17.2 km/h 93 % 0.0 mm
16:23 17.0 °C 16.0 °C 1021.9 hPa WSW 13.0 km/h 17.2 km/h 93 % 0.0 mm
16:28 16.9 °C 16.0 °C 1021.9 hPa WSW 15.4 km/h 17.2 km/h 93 % 0.0 mm
16:33 16.8 °C 16.0 °C 1021.9 hPa WSW 9.7 km/h 15.8 km/h 93 % 0.0 mm
16:38 16.7 °C 16.0 °C 1021.9 hPa SW 9.7 km/h 15.8 km/h 93 % 0.0 mm
16:43 16.7 °C 16.0 °C 1021.9 hPa SW 8.7 km/h 12.6 km/h 94 % 0.0 mm
16:48 16.6 °C 16.0 °C 1021.9 hPa WSW 5.0 km/h 12.2 km/h 94 % 0.0 mm
16:53 16.5 °C 16.0 °C 1021.9 hPa WSW 6.1 km/h 12.2 km/h 94 % 0.0 mm
16:58 16.4 °C 15.0 °C 1021.9 hPa WSW 12.6 km/h 12.6 km/h 94 % 0.0 mm
17:03 16.4 °C 15.0 °C 1022.9 hPa SSW 7.9 km/h 12.6 km/h 94 % 0.0 mm
17:08 16.3 °C 16.0 °C 1022.9 hPa SW 7.9 km/h 12.6 km/h 95 % 0.0 mm
17:13 16.2 °C 16.0 °C 1022.9 hPa WSW 9.0 km/h 12.6 km/h 95 % 0.0 mm
17:18 16.2 °C 16.0 °C 1021.9 hPa SSW 11.6 km/h 11.9 km/h 95 % 0.0 mm
17:23 16.1 °C 15.0 °C 1021.9 hPa SW 7.9 km/h 13.0 km/h 95 % 0.0 mm
17:28 16.1 °C 15.0 °C 1021.9 hPa SSW 9.0 km/h 13.0 km/h 95 % 0.0 mm
17:33 16.0 °C 16.0 °C 1021.9 hPa SW 10.1 km/h 13.7 km/h 96 % 0.0 mm
17:38 16.0 °C 16.0 °C 1021.9 hPa WSW 8.7 km/h 13.7 km/h 96 % 0.0 mm
17:43 15.9 °C 16.0 °C 1021.9 hPa WSW 3.2 km/h 11.6 km/h 96 % 0.0 mm
17:48 15.9 °C 16.0 °C 1022.9 hPa WSW 6.9 km/h 10.5 km/h 96 % 0.0 mm
17:53 15.9 °C 16.0 °C 1022.9 hPa SSW 6.4 km/h 12.6 km/h 97 % 0.0 mm
17:58 15.8 °C 15.0 °C 1022.9 hPa SW 7.9 km/h 12.6 km/h 97 % 0.0 mm
18:03 15.8 °C 15.0 °C 1022.9 hPa WSW 9.0 km/h 10.5 km/h 97 % 0.0 mm
18:08 15.8 °C 15.0 °C 1022.9 hPa SW 6.1 km/h 11.6 km/h 97 % 0.0 mm
18:12 15.7 °C 15.0 °C 1022.9 hPa SW 4.7 km/h 11.6 km/h 97 % 0.0 mm
18:17 15.7 °C 15.0 °C 1022.9 hPa SW 5.8 km/h 10.8 km/h 97 % 0.0 mm
18:22 15.6 °C 15.0 °C 1022.9 hPa SW 6.4 km/h 10.8 km/h 97 % 0.0 mm
18:27 15.6 °C 15.0 °C 1022.9 hPa Calm   9.0 km/h 97 % 0.0 mm
18:32 15.6 °C 15.0 °C 1022.9 hPa WSW 4.3 km/h 7.9 km/h 97 % 0.0 mm
18:37 15.6 °C 15.0 °C 1022.9 hPa WSW 9.0 km/h 10.8 km/h 97 % 0.0 mm
18:42 15.5 °C 15.0 °C 1022.9 hPa WSW 9.3 km/h 10.8 km/h 97 % 0.0 mm
18:47 15.5 °C 16.0 °C 1023.9 hPa Calm   10.5 km/h 98 % 0.0 mm
18:52 15.5 °C 16.0 °C 1023.9 hPa Calm   9.0 km/h 98 % 0.0 mm
18:57 15.5 °C 16.0 °C 1023.9 hPa Calm   9.0 km/h 98 % 0.0 mm
19:02 15.5 °C 16.0 °C 1022.9 hPa SW 6.9 km/h 9.3 km/h 98 % 0.0 mm
19:07 15.5 °C 16.0 °C 1022.9 hPa WSW 5.8 km/h 9.7 km/h 98 % 0.0 mm
19:12 15.5 °C 16.0 °C 1022.9 hPa SW 6.4 km/h 9.7 km/h 98 % 0.0 mm
19:17 15.5 °C 16.0 °C 1022.9 hPa WSW 5.0 km/h 10.1 km/h 98 % 0.0 mm
19:22 15.4 °C 15.0 °C 1022.9 hPa WSW 6.9 km/h 10.1 km/h 98 % 0.0 mm
19:27 15.4 °C 15.0 °C 1022.9 hPa Calm   9.7 km/h 98 % 0.0 mm
19:32 15.4 °C 15.0 °C 1022.9 hPa Calm   9.0 km/h 98 % 0.0 mm
19:37 15.4 °C 15.0 °C 1022.9 hPa Calm   7.9 km/h 98 % 0.0 mm
19:42 15.4 °C 15.0 °C 1022.9 hPa Calm   5.5 km/h 98 % 0.0 mm
19:47 15.4 °C 15.0 °C 1022.9 hPa Calm   6.9 km/h 98 % 0.0 mm
19:52 15.4 °C 15.0 °C 1022.9 hPa Calm   9.7 km/h 98 % 0.0 mm
19:57 15.4 °C 15.0 °C 1022.9 hPa Calm   9.7 km/h 98 % 0.0 mm
20:02 15.4 °C 15.0 °C 1021.9 hPa SW 4.3 km/h 5.5 km/h 98 % 0.0 mm
20:07 15.4 °C 15.0 °C 1021.9 hPa WSW 4.7 km/h 4.7 km/h 98 % 0.0 mm
20:12 15.4 °C 15.0 °C 1021.9 hPa Calm   6.4 km/h 98 % 0.0 mm
20:17 15.4 °C 15.0 °C 1021.9 hPa WSW 2.1 km/h 6.4 km/h 98 % 0.0 mm
20:22 15.4 °C 15.0 °C 1021.9 hPa Calm   6.1 km/h 98 % 0.0 mm
20:27 15.4 °C 15.0 °C 1021.9 hPa Calm   6.1 km/h 98 % 0.0 mm
20:32 15.4 °C 15.0 °C 1022.9 hPa Calm     98 % 0.0 mm
20:38 15.4 °C 15.0 °C 1022.9 hPa Calm     98 % 0.0 mm
20:43 15.3 °C 15.0 °C 1022.9 hPa Calm   7.9 km/h 98 % 0.0 mm
20:48 15.3 °C 15.0 °C 1022.9 hPa Calm   7.9 km/h 98 % 0.0 mm
20:53 15.3 °C 15.0 °C 1022.9 hPa Calm   6.9 km/h 98 % 0.0 mm
20:58 15.3 °C 15.0 °C 1022.9 hPa Calm   6.9 km/h 98 % 0.0 mm
21:03 15.3 °C 15.0 °C 1022.9 hPa SSW 6.1 km/h 9.0 km/h 98 % 0.0 mm
21:08 15.3 °C 15.0 °C 1022.9 hPa Calm   9.0 km/h 98 % 0.0 mm
21:13 15.3 °C 15.0 °C 1022.9 hPa Calm   9.0 km/h 98 % 0.0 mm
21:18 15.3 °C 15.0 °C 1022.9 hPa WSW 5.0 km/h 6.9 km/h 98 % 0.0 mm
21:23 15.3 °C 15.0 °C 1022.9 hPa Calm   7.9 km/h 98 % 0.0 mm
21:28 15.3 °C 15.0 °C 1022.9 hPa Calm   7.9 km/h 98 % 0.0 mm
21:33 15.3 °C 15.0 °C 1022.9 hPa Calm   5.8 km/h 98 % 0.0 mm
21:38 15.3 °C 15.0 °C 1022.9 hPa Calm   6.1 km/h 98 % 0.0 mm
21:43 15.3 °C 15.0 °C 1022.9 hPa Calm   6.1 km/h 98 % 0.0 mm
21:48 15.3 °C 15.0 °C 1022.9 hPa Calm   5.8 km/h 98 % 0.0 mm
21:53 15.3 °C 15.0 °C 1022.9 hPa Calm   5.8 km/h 98 % 0.0 mm
21:58 15.3 °C 15.0 °C 1022.9 hPa WSW 4.3 km/h 5.0 km/h 98 % 0.0 mm
22:03 15.3 °C 15.0 °C 1022.9 hPa Calm   6.9 km/h 98 % 0.0 mm
22:08 15.3 °C 15.0 °C 1022.9 hPa Calm   6.9 km/h 98 % 0.0 mm
22:14 15.2 °C 15.0 °C 1022.9 hPa Calm   2.6 km/h 98 % 0.0 mm
22:19 15.2 °C 15.0 °C 1022.9 hPa SW 5.5 km/h 6.4 km/h 98 % 0.0 mm
22:24 15.3 °C 15.0 °C 1022.9 hPa Calm   9.0 km/h 98 % 0.0 mm
22:29 15.3 °C 15.0 °C 1022.9 hPa WSW 6.9 km/h 9.3 km/h 98 % 0.0 mm
22:34 15.3 °C 15.0 °C 1022.9 hPa WSW 5.8 km/h 14.0 km/h 98 % 0.0 mm
22:39 15.3 °C 15.0 °C 1022.9 hPa SW 9.7 km/h 14.0 km/h 98 % 0.0 mm
22:44 15.4 °C 15.0 °C 1022.9 hPa SW 5.0 km/h 9.7 km/h 98 % 0.0 mm
22:49 15.4 °C 15.0 °C 1023.9 hPa Calm   9.7 km/h 98 % 0.0 mm
22:54 15.4 °C 15.0 °C 1023.9 hPa WSW 5.5 km/h 9.0 km/h 98 % 0.0 mm
22:59 15.3 °C 15.0 °C 1023.9 hPa Calm   9.0 km/h 98 % 0.0 mm
23:04 15.3 °C 15.0 °C 1023.9 hPa Calm   6.1 km/h 98 % 0.0 mm
23:09 15.3 °C 15.0 °C 1023.9 hPa Calm     98 % 0.0 mm
23:14 15.2 °C 15.0 °C 1023.9 hPa Calm     98 % 0.0 mm
23:19 15.2 °C 15.0 °C 1023.9 hPa Calm     98 % 0.0 mm
23:24 15.2 °C 15.0 °C 1023.9 hPa Calm     98 % 0.0 mm
23:31 15.2 °C 15.0 °C 1023.9 hPa Calm   4.7 km/h 98 % 0.0 mm
23:36 15.2 °C 15.0 °C 1023.9 hPa SW 2.1 km/h 5.8 km/h 98 % 0.0 mm
23:41 15.2 °C 15.0 °C 1023.9 hPa Calm   5.8 km/h 98 % 0.0 mm
23:46 15.2 °C 15.0 °C 1024.9 hPa Calm   5.0 km/h 98 % 0.0 mm
23:51 15.2 °C 15.0 °C 1024.9 hPa Calm   4.7 km/h 98 % 0.0 mm
23:56 15.2 °C 15.0 °C 1024.9 hPa Calm     98 % 0.0 mm
Le Gheer Warneton
Courtoisie de Weather Underground - 2.5 mb

Mise a jour : 17-12-17 09:05:12
Généré par Cumulus 1.9.4 (1099)